Location: Dambach
(49.0030°N, 7.6323°E)
Time: 18:14:08
(UTC+00:00)

Daily predictions for brighter satellites

Satellite Brightness Start Highest point End
(mag) Time Altitude Azimuth Time Altitude Azimuth Time Altitude Azimuth
Cosmos 2098 Rocket 4.5 16:44:02 10° NNW 16:46:44 29° W 16:49:17 10° SSW
BREEZE-M R/B 3.0 16:43:39 10° W 16:46:50 82° N 16:52:57 10° E
ATLAS 5 CENTAUR R/B 3.5 16:44:59 10° WNW 16:48:31 23° NNW 16:52:29 10° NNE
COSMO-SKYMED 1 3.7 16:45:45 10° NE 16:49:12 23° E 16:52:39 10° SE
H-2A R/B 2.1 16:45:18 10° NNE 16:49:30 81° WNW 16:53:35 10° SSW
Cosmos 44 3.4 16:46:37 10° SSW 16:50:59 52° ESE 16:55:39 10° NE
Cosmos 1328 4.4 16:49:50 10° NNW 16:53:45 63° W 16:57:39 10° S
NOSS 2-2 (D) 4.5 16:50:51 10° NW 16:56:12 78° NE 17:03:41 10° SE
H-2A R/B 3.4 16:52:38 10° ESE 16:56:28 20° ENE 17:00:20 10° NNE
Cosmos 1825 Rocket 3.6 16:52:40 10° N 16:57:10 89° E 17:01:35 10° S
GENESIS II 4.3 16:55:17 10° SW 16:59:19 86° SE 17:03:23 10° NE
CZ-4C R/B 4.4 16:56:38 10° N 16:59:42 38° WNW 17:02:49 10° SW
Landsat 5 4.3 16:56:41 10° N 17:00:26 50° WNW 17:04:17 10° SW
Cosmos 1656 4.4 16:56:36 10° SSE 17:01:31 33° ESE 17:06:30 10° NE
CZ-4B R/B 3.7 16:57:41 10° S 17:03:15 68° WSW 17:08:44 10° NNW
USA 307 3.1 16:59:08 10° WNW 17:03:23 56° NNE 17:07:25 11° E
Meteor 2-21 Rocket 4.4 16:57:11 10° N 17:03:24 80° E 17:09:32 10° SSE
Cosmos 1939 Rocket 3.2 17:00:03 10° SE 17:03:45 40° ENE 17:07:25 10° N
YAOGAN 1 3.7 17:01:19 10° ESE 17:04:46 24° ENE 17:08:14 10° N
SeaSat 1 3.9 17:03:39 11° E 17:06:54 19° NE 17:10:20 10° N
Okean O Rocket 2.1 17:02:48 10° S 17:07:08 64° WSW 17:11:29 10° NNW
USA 308 3.1 17:04:04 10° WNW 17:08:19 58° NNE 17:12:08 12° E
Cosmos 1331 Rocket 4.0 17:03:39 10° SSW 17:08:49 88° ESE 17:14:01 10° NNE
Cosmos 1408 3.9 17:06:10 10° NNE 17:08:59 21° ENE 17:11:49 10° ESE
Timation 2 Rocket 4.3 17:02:54 10° NNW 17:09:31 82° WSW 17:16:20 10° SSE
USA 215 3.9 17:07:14 11° ENE 17:13:15 44° N 17:19:23 10° WNW
Cosmos 2227 Rocket 2.2 17:07:53 10° NNW 17:13:32 62° ENE 17:19:08 10° SE
Cosmos 1726 Rocket 3.5 17:09:27 10° S 17:13:47 74° E 17:18:11 10° NNE
Cosmos 1892 3.3 17:11:24 10° N 17:15:01 36° ENE 17:18:36 10° SE
Helios 1A Rocket 3.4 17:12:11 10° SE 17:16:01 39° ENE 17:19:52 10° N
ATLAS 2AS CENTAUR R/B 3.7 17:09:45 10° NW 17:16:39 34° NNE 17:22:01 14° E
Cosmos 2263 Rocket 3.7 17:12:56 10° N 17:16:48 18° NE 17:19:26 14° ENE
Cosmos 2228 3.1 17:12:39 10° SSW 17:16:54 78° W 17:21:13 10° N
Aureole 3 Rocket 3.5 17:14:22 10° SSE 17:18:23 52° E 17:23:57 10° NNE
Cosmos 1400 Rocket 3.0 17:14:43 10° S 17:18:42 51° E 17:22:40 10° NNE
Cosmos 292 Rocket 3.8 17:16:22 10° SSW 17:21:10 89° ESE 17:26:02 10° NNE
IRS-1C Rocket 4.0 17:17:19 10° SSE 17:22:33 69° ENE 17:27:48 10° N
Cosmos 968 Rocket 3.5 17:17:56 10° NNW 17:23:07 59° ENE 17:28:14 10° SE
Cosmos 1553 Rocket 4.2 17:19:21 10° SSE 17:25:27 51° E 17:31:29 10° NNE
Cosmos 1300 2.8 17:23:15 10° SSW 17:27:03 76° W 17:30:53 10° N
FALCON 9 DEB 2.9 17:24:29 10° WSW 17:27:42 77° SSE 17:29:34 23° ENE
Lacrosse 5 3.0 17:24:10 10° WNW 17:28:45 33° N 17:32:14 16° NE
CZ-4 R/B 1.6 17:26:09 10° SE 17:29:49 42° ENE 17:33:28 10° N
Cosmos 1606 Rocket 4.1 17:25:32 10° SSW 17:29:51 62° WNW 17:34:16 10° N
Cosmos 1697 Rocket 3.4 17:25:34 10° SSE 17:30:23 30° ESE 17:34:45 12° NE
FALCON 9 DEB 2.8 17:27:36 10° WSW 17:30:48 84° SSE 17:32:31 25° ENE
Cosmos 2058 3.2 17:28:10 10° N 17:32:04 40° ENE 17:35:57 10° SE
Cosmos 1825 3.2 17:30:11 10° NNE 17:33:24 25° ENE 17:34:22 23° E
PSLV R/B 4.1 17:29:34 10° NNE 17:33:39 48° E 17:37:39 10° S
SAR-Lupe-4 3.4 17:30:23 10° NNE 17:33:59 78° ESE 17:37:34 10° S
ERBS 4.1 17:33:26 10° NW 17:36:03 20° N 17:37:25 16° NE
SKYMED 2 3.5 17:33:12 10° NNE 17:37:33 66° ESE 17:41:52 10° S
CZ-2D R/B 3.1 17:34:05 10° SSE 17:37:51 68° ENE 17:41:39 10° N
ERS-2 3.0 17:34:20 10° N 17:37:54 51° WNW 17:41:26 10° SSW
FALCON 9 DEB 3.5 17:36:14 10° WNW 17:39:34 48° NNE 17:40:54 30° ENE
ADEOS Rocket 4.4 17:33:49 10° N 17:39:48 45° WNW 17:46:23 10° SW
Cosmos 1302 Rocket 4.0 17:35:21 10° SSW 17:40:37 87° ESE 17:45:57 10° NNE
SL-4 R/B 1.8 17:37:36 10° WNW 17:41:08 61° N 17:42:47 29° E
Cosmos 1346 Rocket 2.8 17:37:54 10° N 17:41:51 54° ENE 17:45:45 10° SSE
Cosmos 220 Rocket 4.5 17:38:15 10° S 17:42:18 38° ESE 17:45:06 18° NE
Okean-O 2.6 17:38:03 10° SSE 17:42:25 65° ENE 17:46:51 10° N
FALCON 9 DEB 2.9 17:40:55 10° WSW 17:44:11 84° NNW 17:45:25 35° ENE
SL-08 R/B 4.4 17:38:51 10° N 17:45:05 83° E 17:51:11 10° S
Cosmos 1340 3.0 17:41:36 10° NNW 17:45:22 67° W 17:49:07 10° S
Cosmos 1486 Rocket 4.0 17:42:51 10° NNW 17:48:13 87° WSW 17:53:33 10° SSE
Cosmos 1745 Rocket 4.0 17:43:38 10° N 17:49:55 67° ENE 17:56:14 10° SSE
Cosmos 1315 Rocket 3.1 17:47:28 10° SSE 17:51:11 40° E 17:54:02 16° NNE
SAR-Lupe-1 4.3 17:48:16 10° N 17:51:52 70° WNW 17:55:25 10° SSW
Cosmos 1689 Rocket 2.0 17:49:40 10° NNE 17:52:35 82° W 17:55:28 10° SSW
Cosmos 2297 Rocket 2.8 17:47:37 10° NW 17:53:12 60° WSW 17:58:45 10° S
Cosmos 1980 Rocket 3.1 17:49:05 10° SSE 17:53:25 25° ESE 17:53:25 25° ESE
USA 305 2.8 17:49:24 10° WNW 17:53:43 89° SW 17:55:45 31° ESE
FALCON 9 DEB 3.0 17:51:33 10° WSW 17:54:46 71° NNW 17:55:34 46° NE
In-Cosmos 22 Rocket 4.4 17:49:46 10° NNW 17:55:07 72° W 18:00:33 10° S
CZ-4B R/B 3.2 17:52:23 10° N 17:55:16 30° WNW 17:58:05 10° SW
Cosmos 1503 Rocket 3.9 17:53:01 10° NNW 17:58:15 69° ENE 18:03:10 12° SSE
CSL-04 Debris 4.2 17:54:44 10° SSE 18:00:05 60° ENE 18:05:29 10° N
USA 306 2.9 17:55:53 10° WNW 18:00:11 84° SSW 18:01:57 35° SE
Aureole 3 3.8 17:57:52 10° SSW 18:00:49 44° WNW 18:03:42 10° N
Cosmos 1386 Rocket 4.4 17:54:36 10° N 18:01:03 76° E 18:07:23 10° SSE
Cosmos 2058 Rocket 3.9 18:01:11 10° SSW 18:05:35 54° WNW 18:10:02 10° N
CZ-2C R/B 3.2 18:02:55 10° SSE 18:08:43 87° ENE 18:14:21 10° NNW
Cosmos 1354 Rocket 3.9 18:05:10 10° NNW 18:10:27 76° ENE 18:14:14 19° SSE
Cosmos 2360 4.3 18:07:37 10° S 18:13:07 50° ESE 18:15:32 31° NE
CZ-4C R/B 3.6 18:08:26 10° NW 18:14:29 35° NNE 18:17:00 28° ENE
Cosmos 1455 2.0 18:11:09 10° S 18:14:55 78° E 18:17:17 22° NNE
Cosmos 1992 Rocket 3.8 18:13:11 10° SSW 18:18:23 77° ESE 18:22:43 15° NNE
Cosmos 1709 Rocket 4.0 18:13:12 10° N 18:19:34 65° ENE 18:25:54 10° SSE
Meteor 2-10 Rocket 3.5 18:15:22 10° SSW 18:20:40 85° WNW 18:25:49 10° N
SJ 16-02 3.7 18:18:39 10° NNE 18:18:55 11° NNE 18:18:55 11° NNE
Cosmos 1076 Rocket 3.4 18:16:58 10° N 18:21:15 85° W 18:25:00 13° S
Cosmos 2278 3.9 18:19:30 10° S 18:24:50 45° ESE 18:24:50 45° ESE
COSMO-SKYMED 1 3.8 18:21:26 10° N 18:25:33 42° WNW 18:29:39 10° SW
Meteor 2-3 Rocket 4.1 18:22:00 10° N 18:27:07 41° ENE 18:27:07 41° ENE
Ariane Rocket 3.8 18:30:46 35° NE 18:30:46 35° NE 18:34:26 10° N
Geosat 3.9 18:29:49 52° ENE 18:30:51 65° ESE 18:35:50 10° SSW
Cosmos 2082 4.1 18:27:31 10° NNW 18:33:11 63° WSW 18:38:04 14° S
ATLAS 5 CENTAUR R/B 4.0 18:31:54 10° NW 18:34:57 16° N 18:36:16 15° NNE
H-2A R/B 2.2 18:29:51 10° S 18:35:17 80° WSW 18:40:47 10° NNW
Cosmos 883 Rocket 4.3 18:29:44 10° S 18:35:52 76° E 18:42:00 10° NNE
SJ-11-01 4.4 18:34:07 16° S 18:37:51 71° WSW 18:42:33 10° NNW
ARGOS 3.0 18:36:01 30° SSE 18:38:48 85° ENE 18:44:17 10° NNW
YAOGAN 1 3.7 18:36:33 10° S 18:40:39 42° W 18:44:48 10° NNW
S3M 4.3 18:35:38 10° SSW 18:41:41 66° WNW 18:47:53 10° N
GEOS 3 Rocket 3.7 18:41:31 46° SSE 18:43:09 77° SW 18:48:35 10° NW
Cosmos 2315 Rocket 3.8 18:37:08 10° S 18:43:17 71° E 18:49:29 10° NNE
USA 307 3.6 18:39:18 10° WNW 18:43:26 47° SW 18:43:36 47° SSW
SeaSat 1 2.3 18:43:27 75° ESE 18:43:48 81° ENE 18:48:46 10° NNW
Cosmos 1408 4.4 18:40:48 10° NNW 18:44:04 31° W 18:47:21 10° SSW
NOSS 3-4 (A) 3.7 18:39:41 10° NW 18:46:35 75° NE 18:48:36 51° ESE
NOSS 3-4 (C) 3.7 18:39:47 10° NW 18:46:41 75° NE 18:48:40 52° ESE
Cosmos 1812 Rocket 3.9 18:43:41 10° SSW 18:48:04 65° WNW 18:52:26 10° N
USA 308 3.7 18:44:15 10° WNW 18:48:20 44° SW 18:48:20 44° SW
Cosmos 2369 3.7 18:43:09 10° SSW 18:48:54 85° WNW 18:51:18 37° NNE
Cosmos 1844 Rocket 4.4 18:45:36 10° N 18:48:28 19° NNE 18:48:28 19° NNE
DEBRIS 4.1 18:33:22 10° WSW 18:50:46 75° SSE 18:51:52 60° E
USA 215 3.3 18:54:35 54° ENE 18:55:43 62° NNE 19:02:09 10° NW
NOSS 3-3 (A) 4.0 18:50:55 10° SW 18:56:50 80° NW 18:59:03 44° NNE
NOSS 3-3 (C) 3.9 18:51:02 10° SW 18:56:57 80° NW 18:59:06 45° NNE
Cosmos 2227 Rocket 4.3 18:52:41 10° NW 18:57:08 25° WSW 19:01:36 10° SSW
MOS 1 Rocket 3.7 18:52:45 10° N 18:57:22 62° WNW 19:02:16 10° SSW
CSL-04 Rocket 4.4 18:53:15 10° S 18:58:38 52° W 19:04:02 10° NNW
Cosmos 2263 Rocket 2.3 18:56:06 10° NNW 19:01:09 63° NNE 19:01:09 63° NNE
CZ-4 R/B 4.0 19:02:17 10° SW 19:05:03 18° W 19:07:48 10° NW
Cosmos 2151 4.4 19:02:34 10° NNW 19:05:02 33° NNW 19:05:02 33° NNW
ATLAS 2AS CENTAUR R/B 2.6 19:01:09 10° NW 19:08:46 80° NE 19:09:28 72° ESE
Cosmos 1825 4.2 19:05:38 10° NNW 19:08:51 27° W 19:09:13 26° W
BREEZE-M R/B 4.2 19:04:58 10° WNW 19:09:42 68° SSW 19:10:34 62° SSE
Lacrosse 5 2.9 19:07:42 10° NW 19:11:26 40° NNW 19:11:26 40° NNW
Cosmos 1697 Rocket 3.4 19:08:39 10° SW 19:14:06 51° NW 19:16:32 31° N
Cosmos 1777 Rocket 4.4 19:10:34 10° NNW 19:14:48 58° NW 19:14:48 58° NW
SL-4 R/B 4.3 19:17:07 10° WNW 19:18:22 20° W 19:18:22 20° W
Cosmos 1980 Rocket 3.2 19:31:38 10° SW 19:35:17 39° WSW 19:35:17 39° WSW
SJ 16-02 4.4 19:55:53 10° NNW 19:55:53 10° NNW 19:55:53 10° NNW
CZ-4C R/B 3.3 19:56:49 10° NW 20:02:11 58° NW 20:02:11 58° NW
